Location: Wien
(48.2082°N, 16.3738°E)
Time: 12:33:56
(UTC+02:00)

Tiros 1 despin weight - Pass Details

Date: 15 September 2024
Orbit: 573 x 615 km, 48.2° (Epoch: 06 October)

Event Time Altitude Azimuth Distance (km) Brightness Sun altitude
Rises 10:49:45 0° 278° (W) 2,887 ? 37.8°
Reaches altitude 10° 10:53:19 10° 250° (WSW) 1,971 ? 38.2°
Maximum altitude 10:55:13 13° 225° (SW) 1,803 ? 38.4°
Drops below altitude 10° 10:57:07 10° 199° (SSW) 1,958 ? 38.5°
Sets 11:00:39 0° 170° (S) 2,846 ? 38.9°
